Regional Weather Roundup
Issued by NWS Albany, NY

Home | Current Version | Previous Version | Text Only | Print | Product List | Glossary On
Versions: 1 2 3 4 5 6 7 8 9 10 11 12 13 14 15 16 17 18 19 20 21 22 23 24 25 26 27
000
ASUS41 KALY 061810
RWRALY

NEW YORK STATE HOURLY WEATHER ROUNDUP
NATIONAL WEATHER SERVICE ALBANY NY
200 PM EDT FRI MAY 06 2016

NOTE: "FAIR" INDICATES FEW OR NO CLOUDS BELOW 12,000 FEET WITH NO
SIGNIFICANT WEATHER AND/OR NO OBSTRUCTIONS TO VISIBILITY.

NYZ032-033-038>043-046>054-057>066-NYZ062>081-082-084-061900-
EAST


CITY           SKY/WX    TMP DP  RH WIND       PRES   REMARKS
ALBANY         PTSUNNY   62  45  53 N7        29.78F
GLENS FALLS    CLOUDY    64  43  46 NE8       29.79F
POUGHKEEPSIE   CLOUDY    55  51  86 N9        29.74F
NEWBURGH       DRIZZLE   52  52 100 NE12      29.76  FOG
MONTGOMERY     LGT RAIN  52  49  89 NE14G21   29.74S
WHITE PLAINS   CLOUDY    51  47  86 E8        29.74S
ISLIP          CLOUDY    51  46  83 E21G28    29.76R
NEW YORK CITY  CLOUDY    53  51  93 NE13      29.73S
CENTRAL PARK   CLOUDY    51  48  89 E7        29.75S
$$

NYZ005>009-017-018-044>046-055-056-061900-
CENTRAL


CITY           SKY/WX    TMP DP  RH WIND       PRES   REMARKS
FULTON         CLOUDY    63  38  39 N14G20    29.80F
SYRACUSE       CLOUDY    64  38  38 NE9       29.77F
ROME           LGT RAIN  59  48  67 SE9       29.78F
ELMIRA         LGT RAIN  57  38  48 N13       29.75F
BINGHAMTON     LGT RAIN  49  45  86 NE9       29.75S FOG
MONTICELLO     CLOUDY    50  48  93 E17G23    29.74F
$$

NYZ026>034-041>043-087-061900-
NORTH


CITY           SKY/WX    TMP DP  RH WIND       PRES   REMARKS
WATERTOWN      CLOUDY    65  37  35 NE20      29.82F
FORT DRUM      NOT AVBL
MASSENA        PTSUNNY   66  34  30 E14       29.89F
SARANAC LAKE   SUNNY     62  35  36 E15G23    29.82F
PLATTSBURGH    SUNNY     65  40  39 N18       29.85F
$$

NYZ001>004-010>016-019>021-085-061900-
WEST


CITY           SKY/WX    TMP DP  RH WIND       PRES   REMARKS
NIAGARA FALLS  MOSUNNY   67  36  31 NE18G26   29.84F
BUFFALO        PTSUNNY   64  33  31 NE21G28   29.84F
DUNKIRK        MOSUNNY   60  44  55 NW10      29.85F
JAMESTOWN      MOSUNNY   59  37  44 N13G18    29.82S
WELLSVILLE     CLOUDY    54  33  45 N13G25    29.79F
ROCHESTER      CLOUDY    60  39  45 NE13G24   29.84F
PENN YAN       PTSUNNY   59  40  49 N12G22    29.81F
$$

             KEY
       WCI = WIND CHILL INDEX
       VSB = VISIBILITY
       HX  = HEAT INDEX
$$




USA.gov is the U.S. government's official web portal to all federal, state and local government web resources and services.